This is the latest recevied weather packets stored in our database for station/object KD7CTY. If no packets are shown the sender has not sent any weather packets the latest 10 day(s).
| Time | Temp. | Humidity | Pressure | Rain* | Wind** | Luminosity | Snow |
|---|---|---|---|---|---|---|---|
| 1777840220 | 25.56° C | 44% | 1011.8 hPa | 0 mm | - | 543 W/m² | - |
| 1777839918 | 25.56° C | 45% | 1011.6 hPa | 0 mm | - | 622 W/m² | - |
| 1777839616 | 25° C | 46% | 1011.7 hPa | 0 mm | - | 627 W/m² | - |
| 1777839314 | 25.56° C | 45% | 1011.7 hPa | 0 mm | - | 694 W/m² | - |
| 1777839011 | 25.56° C | 47% | 1012 hPa | 0 mm | - | 779 W/m² | - |
| 1777838707 | 25° C | 47% | 1011.7 hPa | 0 mm | - | 748 W/m² | - |
| 1777838404 | 25° C | 46% | 1011.8 hPa | 0 mm | - | 809 W/m² | - |
| 1777838101 | 25° C | 49% | 1012 hPa | 0 mm | - | 808 W/m² | - |
| 1777837797 | 25° C | 45% | 1011.9 hPa | 0 mm | - | 872 W/m² | - |
| 1777837495 | 25° C | 46% | 1012.3 hPa | 0 mm | - | 872 W/m² | - |
| 1777837189 | 25° C | 46% | 1012.1 hPa | 0 mm | - | 869 W/m² | - |
| 1777836885 | 24.44° C | 50% | 1012.2 hPa | 0 mm | - | 869 W/m² | - |
| 1777836581 | 25° C | 48% | 1012.3 hPa | 0 mm | - | 864 W/m² | - |
| 1777836278 | 24.44° C | 48% | 1012.5 hPa | 0 mm | - | 883 W/m² | - |
| 1777835973 | 24.44° C | 48% | 1012.5 hPa | 0 mm | - | 873 W/m² | - |
| 1777835671 | 23.89° C | 49% | 1012.4 hPa | 0 mm | - | 828 W/m² | - |
| 1777835367 | 24.44° C | 49% | 1012.4 hPa | 0 mm | - | 810 W/m² | - |
| 1777835065 | 24.44° C | 48% | 1012.6 hPa | 0 mm | - | 911 W/m² | - |
| 1777834762 | 23.33° C | 50% | 1012.7 hPa | 0 mm | - | 910 W/m² | - |
| 1777834458 | 23.89° C | 50% | 1012.8 hPa | 0 mm | - | 918 W/m² | - |
| 1777834157 | 23.89° C | 49% | 1012.8 hPa | 0 mm | - | 915 W/m² | - |
| 1777833854 | 23.89° C | 52% | 1012.8 hPa | 0 mm | - | 899 W/m² | - |
| 1777833550 | 22.78° C | 50% | 1012.7 hPa | 0 mm | - | 904 W/m² | - |
| 1777833247 | 22.78° C | 51% | 1012.9 hPa | 0 mm | - | 907 W/m² | - |
| 1777832944 | 22.78° C | 50% | 1013 hPa | 0 mm | - | 906 W/m² | - |
* Rain latest hour (hover to see other rain measurements)
** Current wind speed in m/s (hover to see current wind gust speed)